Date String (YYYY-MM-DD hh:mm:ss) UTC,Instrument flags,absolute air pressure of the measurement (hPa),sample flow rate (lpm),inlet stack bypass flow (lpm),air temperature of the measurement (°C),ambient temperature measured by the external sensor (°C),aerosol sample conditioner tube jacket temperature (°C),OPC LED temperature (°C),internal box temperature (°C),relative humidity of the measurement (%),span deviation,mass concentration of particles derived from Lorenz-Mie calculation of OPC scattering (μg/m³),mass concentration of particles derived from Lorenz-Mie calculation of OPC scattering (μg/m³),mass concentration of particles derived from Lorenz-Mie calculation of OPC scattering (μg/m³)
DateTimeUTC,F1_M11,P_M11,Q1_M11,Q2_M11,T1_M11,T2_M11,T3_M11,T4_M11,T5_M11,U1_M11,ZSPAN_M11,X0_M11,X2_M11,X1_M11
2023-10-04 18:00:00,SystemResetWarning,0831.4,5.00,000.00,028.7,025.1,000.0,037.2,030.1,16.8,0000.0,0010.53,0003.65,0002.73
2023-10-04 18:01:00,SystemResetWarning,0831.4,5.00,000.00,028.6,025.5,000.0,037.2,030.1,16.8,0000.0,0010.15,0003.67,0002.75
2023-10-04 18:02:00,SystemResetWarning,0831.4,5.00,000.00,028.6,025.9,000.0,037.2,030.2,16.8,0000.0,0010.54,0003.64,0002.76
2023-10-04 18:03:00,SystemResetWarning,0831.3,5.00,000.00,028.6,026.2,000.0,037.2,030.2,16.8,0000.0,0011.09,0003.65,0002.79
2023-10-04 18:04:00,SystemResetWarning,0831.3,5.00,000.00,028.6,026.5,000.0,037.2,030.2,16.8,0000.0,0010.69,0003.64,0002.80
2023-10-04 18:05:00,SystemResetWarning,0831.3,5.00,000.00,028.6,026.8,000.0,037.2,030.3,16.6,0000.0,0009.82,0003.61,0002.80
2023-10-04 18:06:00,SystemResetWarning,0831.3,4.99,000.00,028.6,027.0,000.0,037.1,030.3,16.5,0000.0,0009.40,0003.63,0002.80
2023-10-04 18:07:00,SystemResetWarning,0831.3,4.99,000.00,028.7,027.1,000.0,037.2,030.4,16.4,0000.0,0009.41,0003.64,0002.81
2023-10-04 18:08:00,SystemResetWarning,0831.3,5.00,000.00,028.7,027.3,000.0,037.2,030.4,16.3,0000.0,0009.81,0003.66,0002.82
2023-10-04 18:09:00,SystemResetWarning,0831.3,5.01,000.00,028.7,027.4,000.0,037.2,030.5,16.1,0000.0,0011.19,0003.67,0002.83
2023-10-04 18:10:00,SystemResetWarning,0831.3,5.01,000.00,028.8,027.5,000.0,037.2,030.5,16.1,0000.0,0011.64,0003.71,0002.83
2023-10-04 18:11:00,SystemResetWarning,0831.3,5.00,000.00,028.8,027.6,000.0,037.2,030.5,16.2,0000.0,0011.66,0003.70,0002.80
2023-10-04 18:12:00,SystemResetWarning,0831.3,5.00,000.00,028.8,027.7,000.0,037.2,030.6,16.0,0000.0,0011.61,0003.65,0002.77
2023-10-04 18:13:00,SystemResetWarning,0831.2,5.00,000.00,028.9,027.8,000.0,037.2,030.6,15.9,0000.0,0011.63,0003.65,0002.73
2023-10-04 18:14:00,SystemResetWarning,0831.3,5.00,000.00,028.9,027.8,000.0,037.3,030.7,15.9,0000.0,0011.66,0003.65,0002.70
2023-10-04 18:15:00,SystemResetWarning,0831.2,4.99,000.00,028.9,027.5,000.0,037.3,030.7,15.8,0000.0,0011.87,0003.64,0002.66
2023-10-04 18:16:00,SystemResetWarning,0831.3,4.99,000.00,028.9,025.6,000.0,037.2,030.5,16.0,0000.0,0012.99,0003.67,0002.65
2023-10-04 18:17:00,SystemResetWarning,0831.2,5.00,000.00,028.8,024.3,000.0,037.1,030.3,16.0,0000.0,0012.85,0003.68,0002.65
2023-10-04 18:18:00,SystemResetWarning,0831.2,5.02,000.00,028.7,024.4,000.0,037.1,030.1,16.2,0000.0,0013.48,0003.70,0002.67
2023-10-04 18:19:00,SystemResetWarning,0831.2,5.00,000.00,028.6,024.7,000.0,037.1,029.9,16.2,0000.0,0014.15,0003.70,0002.68
2023-10-04 18:20:00,SystemResetWarning,0831.2,5.00,000.00,028.5,025.1,000.0,037.1,030.0,16.3,0000.0,0013.47,0003.76,0002.71
2023-10-04 18:21:00,SystemResetWarning,0831.2,5.00,000.00,028.5,025.6,000.0,037.1,030.0,16.6,0000.0,0013.45,0003.76,0002.72
2023-10-04 18:22:00,SystemResetWarning,0831.2,5.01,000.00,028.5,026.0,000.0,037.1,030.1,16.6,0000.0,0013.60,0003.82,0002.75
2023-10-04 18:23:00,SystemResetWarning,0831.2,5.00,000.00,028.5,026.3,000.0,037.1,030.2,16.6,0000.0,0013.69,0003.89,0002.79
2023-10-04 18:24:00,SystemResetWarning,0831.2,5.00,000.00,028.5,026.6,000.0,037.1,030.2,16.7,0000.0,0013.53,0003.95,0002.82
2023-10-04 18:25:00,SystemResetWarning,0831.3,5.00,000.00,028.5,026.8,000.0,037.1,030.2,16.3,0000.0,0013.92,0003.98,0002.85
2023-10-04 18:26:00,SystemResetWarning,0831.2,5.00,000.00,028.6,027.0,000.0,037.1,030.3,16.3,0000.0,0014.27,0004.01,0002.89
2023-10-04 18:27:00,SystemResetWarning,0831.2,5.00,000.00,028.6,027.2,000.0,037.1,030.3,16.3,0000.0,0013.76,0003.97,0002.90
2023-10-04 18:28:00,SystemResetWarning,0831.2,5.00,000.00,028.6,027.3,000.0,037.1,030.4,16.5,0000.0,0013.15,0003.98,0002.92
2023-10-04 18:29:00,SystemResetWarning,0831.1,5.00,000.00,028.7,027.4,000.0,037.1,030.5,16.4,0000.0,0013.56,0003.97,0002.91
2023-10-04 18:30:00,SystemResetWarning,0831.2,4.99,000.00,028.7,027.6,000.0,037.1,030.5,16.5,0000.0,0014.15,0003.97,0002.89
2023-10-04 18:31:00,SystemResetWarning,0831.1,5.00,000.00,028.7,027.7,000.0,037.1,030.5,16.3,0000.0,0013.84,0003.96,0002.87
2023-10-04 18:32:00,SystemResetWarning,0831.1,5.01,000.00,028.8,027.7,000.0,037.2,030.6,16.1,0000.0,0013.40,0003.93,0002.88
2023-10-04 18:33:00,SystemResetWarning,0831.1,5.00,000.00,028.8,027.8,000.0,037.2,030.6,16.0,0000.0,0013.19,0003.91,0002.88
2023-10-04 18:34:00,SystemResetWarning,0831.1,4.98,000.00,028.9,026.9,000.0,037.2,030.6,15.9,0000.0,0013.18,0003.87,0002.88
2023-10-04 18:35:00,SystemResetWarning,0831.2,5.00,000.00,028.8,025.0,000.0,037.1,030.4,15.8,0000.0,0013.00,0003.85,0002.88
2023-10-04 18:36:00,SystemResetWarning,0831.1,5.01,000.00,028.7,024.3,000.0,037.0,030.2,15.8,0000.0,0012.70,0003.87,0002.87
2023-10-04 18:37:00,SystemResetWarning,0831.1,5.01,000.00,028.6,024.6,000.0,037.0,030.0,15.7,0000.0,0013.28,0003.90,0002.86
2023-10-04 18:38:00,SystemResetWarning,0831.1,5.00,000.00,028.5,024.9,000.0,037.0,029.9,15.8,0000.0,0013.10,0003.92,0002.86
2023-10-04 18:39:00,SystemResetWarning,0831.1,5.00,000.00,028.5,025.3,000.0,037.0,030.0,15.8,0000.0,0013.37,0003.94,0002.84
2023-10-04 18:40:00,SystemResetWarning,0831.1,5.00,000.00,028.4,025.7,000.0,037.0,030.0,15.7,0000.0,0013.18,0003.96,0002.84
2023-10-04 18:41:00,SystemResetWarning,0831.1,5.00,000.00,028.4,026.1,000.0,037.0,030.1,16.0,0000.0,0012.78,0003.93,0002.84
2023-10-04 18:42:00,SystemResetWarning,0831.2,5.00,000.00,028.4,026.4,000.0,037.0,030.1,16.0,0000.0,0013.03,0003.95,0002.85
2023-10-04 18:43:00,SystemResetWarning,0831.1,5.00,000.00,028.5,026.7,000.0,037.0,030.2,16.1,0000.0,0012.97,0003.92,0002.86
2023-10-04 18:44:00,SystemResetWarning,0831.0,5.00,000.00,028.5,026.9,000.0,037.0,030.2,16.2,0000.0,0014.08,0003.91,0002.85
2023-10-04 18:45:00,SystemResetWarning,0831.0,5.00,000.00,028.5,027.1,000.0,037.0,030.3,15.9,0000.0,0014.82,0003.94,0002.85
2023-10-04 18:46:00,SystemResetWarning,0830.9,4.99,000.00,028.6,027.2,000.0,037.0,030.3,16.0,0000.0,0015.98,0003.96,0002.84
2023-10-04 18:47:00,SystemResetWarning,0830.9,5.00,000.00,028.6,027.4,000.0,037.0,030.4,16.1,0000.0,0016.05,0003.90,0002.83
2023-10-04 18:48:00,SystemResetWarning,0830.9,5.01,000.00,028.6,027.5,000.0,037.1,030.4,16.1,0000.0,0014.73,0003.84,0002.83
2023-10-04 18:49:00,SystemResetWarning,0830.9,5.00,000.00,028.7,027.6,000.0,037.1,030.5,16.1,0000.0,0014.51,0003.82,0002.80
2023-10-04 18:50:00,SystemResetWarning,0830.9,5.00,000.00,028.7,027.7,000.0,037.1,030.6,15.9,0000.0,0014.61,0003.79,0002.78
2023-10-04 18:51:00,SystemResetWarning,0830.9,4.99,000.00,028.8,027.8,000.0,037.1,030.6,15.7,0000.0,0014.35,0003.76,0002.76
2023-10-04 18:52:00,SystemResetWarning,0830.9,4.99,000.00,028.8,027.8,000.0,037.2,030.7,15.5,0000.0,0013.33,0003.73,0002.73
2023-10-04 18:53:00,SystemResetWarning,0830.9,5.00,000.00,028.8,026.3,000.0,037.1,030.5,15.6,0000.0,0013.91,0003.69,0002.68
2023-10-04 18:54:00,SystemResetWarning,0830.8,5.00,000.00,028.7,024.6,000.0,037.0,030.3,15.8,0000.0,0014.99,0003.69,0002.65
2023-10-04 18:55:00,SystemResetWarning,0830.8,5.01,000.00,028.6,024.4,000.0,037.0,030.1,16.3,0000.0,0014.03,0003.65,0002.62
2023-10-04 18:56:00,SystemResetWarning,0830.7,5.02,000.00,028.5,024.7,000.0,037.0,030.0,16.5,0000.0,0013.08,0003.59,0002.59
2023-10-04 18:57:00,SystemResetWarning,0830.7,4.99,000.00,028.5,025.1,000.0,037.0,029.9,16.7,0000.0,0012.08,0003.57,0002.57
2023-10-04 18:58:00,SystemResetWarning,0830.7,5.00,000.00,028.4,025.5,000.0,037.0,030.0,16.6,0000.0,0011.76,0003.56,0002.54
2023-10-04 18:59:00,SystemResetWarning,0830.7,5.00,000.00,028.4,025.9,000.0,037.0,030.0,16.4,0000.0,0012.06,0003.59,0002.52
